Quincy, IL

4:20 AM CDT on September 22, 2019 (GMT -0500)
Quincy Regional-Baldwin

Weather History for KUIN - July, 2019

Change the Weather History Date:

Saturday, July 27, 2019

  Actual Average Record
Temperature  
Mean Temperature 77 °F 76 °F  
Max Temperature 88 °F 86 °F 105 °F (1936)
Min Temperature 66 °F 66 °F 50 °F (1962)
Degree Days  
Heating Degree Days 0 0  
Month to date heating degree days 0 0  
Since 1 June heating degree days 5 16  
Since 1 July heating degree days 0 0  
Cooling Degree Days 12 11  
Month to date cooling degree days 394 297  
Year to date cooling degree days 741 610  
Since 1 June cooling degree days 631 524  
Growing Degree Days 27 (Base 50)    
Moisture  
Dew Point 63 °F    
Average Humidity 65    
Maximum Humidity 87    
Minimum Humidity 43    
Precipitation  
Precipitation 0.00 in 0.12 in 1.71 in (1981)
Month to date precipitation 1.13 3.56  
Year to date precipitation 24.53 21.64  
Sea Level Pressure  
Sea Level Pressure 30.12 in    
Wind  
Wind Speed 9 mph (SSW)    
Max Wind Speed 17 mph    
Max Gust Speed 24 mph    
Visibility 10 miles    
Events      
T = Trace of Precipitation, MM = Missing Value Source: NWS Daily Summary

Daily Weather History Graph

Daily Weather History Graph

Search for Another Location

Airport or City:

Astronomy

Jul. 27, 2019 Rise Set
Actual Time 5:58 AM CDT 8:23 PM CDT
Civil Twilight 5:27 AM CDT 8:54 PM CDT
Nautical Twilight 4:49 AM CDT 9:32 PM CDT
Astronomical Twilight 4:07 AM CDT 10:14 PM CDT
Moon 1:44 AM CDT (7/27) 4:15 PM CDT (7/27)
Length of Visible Light 15h 26m
Length of Day
14h 24m
Waning Crescent, 24% of the Moon is Illuminated
Jul 27
Waning Crescent
Jul 31
New
Aug 7
First Quarter
Aug 15
Full
Aug 23
Last Quarter

Hourly Weather History & Observations

Time (CDT) Temp. Heat Index Dew Point Humidity Pressure Visibility Wind Dir Wind Speed Gust Speed Precip Events Conditions
12:54 AM 69.1 °F - 63.0 °F 81% 30.14 in 10.0 mi SSW 5.8 mph - N/A   Clear
1:54 AM 68.0 °F - 62.1 °F 81% 30.13 in 10.0 mi South 4.6 mph - N/A   Clear
2:54 AM 68.0 °F - 62.1 °F 81% 30.12 in 10.0 mi South 4.6 mph - N/A   Clear
3:54 AM 66.9 °F - 62.1 °F 84% 30.13 in 10.0 mi South 4.6 mph - N/A   Clear
4:54 AM 66.9 °F - 62.1 °F 84% 30.14 in 10.0 mi South 5.8 mph - N/A   Clear
5:54 AM 66.9 °F - 62.1 °F 84% 30.14 in 10.0 mi South 6.9 mph - N/A   Scattered Clouds
6:54 AM 68.0 °F - 62.1 °F 81% 30.15 in 10.0 mi SSW 8.1 mph - N/A   Scattered Clouds
7:54 AM 71.1 °F - 63.0 °F 75% 30.16 in 10.0 mi SSW 10.4 mph - N/A   Partly Cloudy
8:54 AM 75.0 °F - 64.0 °F 69% 30.16 in 10.0 mi SSW 10.4 mph - N/A   Clear
9:54 AM 79.0 °F - 64.0 °F 60% 30.15 in 10.0 mi SSW 9.2 mph - N/A   Clear
10:54 AM 82.9 °F 84.4 °F 64.0 °F 53% 30.15 in 10.0 mi SW 13.8 mph - N/A   Clear
11:54 AM 84.9 °F 85.9 °F 63.0 °F 48% 30.14 in 10.0 mi SW 15.0 mph 23.0 mph N/A   Clear
12:54 PM 86.0 °F 86.3 °F 62.1 °F 44% 30.13 in 10.0 mi SSW 15.0 mph - N/A   Clear
1:54 PM 87.1 °F 87.8 °F 63.0 °F 44% 30.12 in 10.0 mi SSW 12.7 mph 21.9 mph N/A   Clear
2:54 PM 88.0 °F 88.4 °F 62.1 °F 42% 30.11 in 10.0 mi SW 12.7 mph - N/A   Clear
3:54 PM 88.0 °F 88.7 °F 63.0 °F 43% 30.10 in 10.0 mi SSW 12.7 mph - N/A   Clear
4:54 PM 87.1 °F 87.5 °F 62.1 °F 43% 30.09 in 10.0 mi SSW 11.5 mph - N/A   Clear
5:54 PM 86.0 °F 86.8 °F 63.0 °F 46% 30.08 in 10.0 mi SW 10.4 mph - N/A   Clear
6:54 PM 84.0 °F 85.8 °F 64.9 °F 53% 30.07 in 10.0 mi SSW 8.1 mph - N/A   Clear
7:54 PM 81.0 °F 83.0 °F 66.0 °F 60% 30.08 in 10.0 mi South 6.9 mph - N/A   Clear
8:54 PM 78.1 °F - 66.0 °F 66% 30.08 in 10.0 mi South 5.8 mph - N/A   Clear
9:54 PM 75.9 °F - 66.0 °F 71% 30.09 in 10.0 mi South 4.6 mph - N/A   Clear